This is the latest recevied weather packets stored in our database for station/object K7FLA. If no packets are shown the sender has not sent any weather packets the latest 1 day(s).
| Time | Temp. | Humidity | Pressure | Rain* | Wind** | Luminosity | Snow |
|---|---|---|---|---|---|---|---|
| 1777982537 | 9.44° C | 91% | 1092.7 hPa | 0 mm | 0.45 m/s, 250° | 0 W/m² | - |
| 1777982235 | 9.44° C | 91% | 1092.4 hPa | 0 mm | 0.45 m/s, 200° | 0 W/m² | - |
| 1777981933 | 9.44° C | 91% | 1092.4 hPa | 0 mm | 0.45 m/s, 200° | 0 W/m² | - |
| 1777981630 | 9.44° C | 91% | 1092.5 hPa | 0 mm | 0 m/s | 0 W/m² | - |
| 1777981326 | 9.44° C | 90% | 1092.7 hPa | 0 mm | 0 m/s | 0 W/m² | - |
| 1777981023 | 9.44° C | 90% | 1092.8 hPa | 1.78 mm | 0.89 m/s, 221° | 0 W/m² | - |
| 1777980720 | 9.44° C | 90% | 1093.1 hPa | 1.78 mm | 0.45 m/s, 213° | 0 W/m² | - |
| 1777980416 | 9.44° C | 90% | 1092.8 hPa | 0 mm | 0.45 m/s, 224° | 0 W/m² | - |
| 1777980114 | 9.44° C | 90% | 1092.8 hPa | 0 mm | 0.45 m/s, 195° | 0 W/m² | - |
| 1777979813 | 9.44° C | 90% | 1093 hPa | 0 mm | 0.89 m/s, 204° | 0 W/m² | - |
| 1777979509 | 9.44° C | 90% | 1093 hPa | 0 mm | 0.89 m/s, 233° | 0 W/m² | - |
| 1777979206 | 9.44° C | 90% | 1093 hPa | 0 mm | 0.45 m/s, 222° | 0 W/m² | - |
| 1777978903 | 9.44° C | 90% | 1093.1 hPa | 0 mm | 0.89 m/s, 238° | 0 W/m² | - |
| 1777978600 | 9.44° C | 90% | 1092.8 hPa | 0 mm | 0.45 m/s, 216° | 0 W/m² | - |
| 1777978295 | 9.44° C | 90% | 1093 hPa | 0 mm | 0.89 m/s, 232° | 0 W/m² | - |
| 1777977992 | 9.44° C | 90% | 1092.8 hPa | 0 mm | 0.89 m/s, 188° | 0 W/m² | - |
| 1777977690 | 9.44° C | 90% | 1093 hPa | 0 mm | 0.45 m/s, 213° | 0 W/m² | - |
| 1777977386 | 8.89° C | 90% | 1092.7 hPa | 0 mm | 0.45 m/s, 215° | 0 W/m² | - |
| 1777977084 | 9.44° C | 90% | 1092.8 hPa | 0 mm | 0.89 m/s, 205° | 0 W/m² | - |
| 1777976781 | 8.89° C | 90% | 1093.1 hPa | 0 mm | 0.45 m/s, 200° | 0 W/m² | - |
| 1777976479 | 8.89° C | 90% | 1093.1 hPa | 0 mm | 0.45 m/s, 156° | 0 W/m² | - |
| 1777976177 | 8.89° C | 90% | 1093 hPa | 0 mm | 0.45 m/s, 203° | 0 W/m² | - |
| 1777975873 | 9.44° C | 90% | 1093 hPa | 0 mm | 0 m/s | 0 W/m² | - |
| 1777975570 | 9.44° C | 90% | 1093 hPa | 0 mm | 0 m/s | 0 W/m² | - |
| 1777975267 | 9.44° C | 89% | 1093 hPa | 0 mm | 0.45 m/s, 188° | 0 W/m² | - |
* Rain latest hour (hover to see other rain measurements)
** Current wind speed in m/s (hover to see current wind gust speed)